Weather History for Fallon NAS, NV

Change the Weather History Date:

Saturday, September 6, 2014

  Actual Average Record
Temperature  
Mean Temperature 70 °F -  
Max Temperature 93 °F 85 °F 98 °F (1955)
Min Temperature 48 °F 49 °F 36 °F (1996)
Cooling Degree Days 4    
Growing Degree Days 20 (Base 50)    
Moisture  
Dew Point 20 °F    
Average Humidity 17    
Maximum Humidity 29    
Minimum Humidity 7    
Precipitation  
Precipitation 0.00 in - - ()
Sea Level Pressure  
Sea Level Pressure 29.95 in    
Wind  
Wind Speed 5 mph (WSW)    
Max Wind Speed 12 mph    
Max Gust Speed -    
Visibility 10 miles    
Events      
Averages and records for this station are not official NWS values.
T = Trace of Precipitation, MM = Missing Value Source: NWS Daily Summary

Daily Weather History Graph

Daily Weather History Graph

Search for Another Location

Airport:

Trip Planner

Search our weather history database for the weather conditions in past years. The results will help you decide how hot, cold, wet, or windy it might be!

Date:

Astronomy

Sep. 06, 2014 Rise Set
Actual Time 6:27 AM PDT 7:17 PM PDT
Civil Twilight 6:00 AM PDT 7:44 PM PDT
Nautical Twilight 5:28 AM PDT 8:17 PM PDT
Astronomical Twilight 4:54 AM PDT 8:50 PM PDT
Moon 5:36 PM PDT (9/6) 3:36 AM PDT (9/6)
Length of Visible Light 13h 44m
Length of Day
12h 49m
Waxing Gibbous, 92% of the Moon is Illuminated
Sep 6
Waxing Gibbous
Sep 8
Full
Sep 15
Last Quarter
Sep 23
New
Oct 1
First Quarter

Hourly Weather History & Observations

Time (PDT) Temp. Dew Point Humidity Pressure Visibility Wind Dir Wind Speed Gust Speed Precip Events Conditions
12:56 AM 54.0 °F 21.9 °F 29% 29.96 in 10.0 mi South 6.9 mph - N/A   Clear
1:56 AM 55.9 °F 21.0 °F 26% 29.96 in 10.0 mi West 3.5 mph - N/A   Clear
2:56 AM 51.1 °F 18.0 °F 27% 29.97 in 10.0 mi South 5.8 mph - N/A   Clear
3:56 AM 51.1 °F 19.0 °F 28% 29.97 in 10.0 mi WSW 3.5 mph - N/A   Clear
4:56 AM 50.0 °F 17.1 °F 27% 29.97 in 10.0 mi South 8.1 mph - N/A   Clear
5:56 AM 48.9 °F 17.1 °F 28% 29.98 in 10.0 mi SSE 6.9 mph - N/A   Clear
6:56 AM 50.0 °F 18.0 °F 28% 29.99 in 10.0 mi Calm Calm - N/A   Clear
7:56 AM 57.9 °F 18.0 °F 21% 30.01 in 10.0 mi SW 3.5 mph - N/A   Clear
8:56 AM 66.9 °F 19.9 °F 17% 30.01 in 10.0 mi SW 3.5 mph - N/A   Clear
9:01 AM 68.0 °F 19.9 °F 16% 30.11 in 10.0 mi SSW 3.5 mph - N/A   Clear
9:56 AM 73.0 °F 21.9 °F 15% 30.01 in 10.0 mi WNW 4.6 mph - N/A   Clear
10:56 AM 77.0 °F 23.0 °F 13% 30.01 in 10.0 mi Calm Calm - N/A   Clear
11:56 AM 82.0 °F 21.9 °F 11% 29.99 in 10.0 mi Variable 4.6 mph - N/A   Partly Cloudy
12:56 PM 84.0 °F 19.9 °F 9% 29.97 in 10.0 mi Variable 4.6 mph - N/A   Partly Cloudy
1:56 PM 88.0 °F 18.0 °F 8% 29.94 in 10.0 mi Variable 4.6 mph - N/A   Partly Cloudy
2:56 PM 90.0 °F 17.1 °F 7% 29.91 in 10.0 mi Variable 5.8 mph - N/A   Partly Cloudy
3:56 PM 91.0 °F 17.1 °F 7% 29.89 in 10.0 mi North 5.8 mph - N/A   Partly Cloudy
4:56 PM 91.0 °F 17.1 °F 7% 29.88 in 10.0 mi Calm Calm - N/A   Partly Cloudy
5:56 PM 91.0 °F 18.0 °F 7% 29.87 in 10.0 mi NNW 11.5 mph - N/A   Partly Cloudy
6:56 PM 87.1 °F 19.0 °F 8% 29.86 in 6.0 mi North 6.9 mph - N/A   Haze
7:56 PM 77.0 °F 18.0 °F 11% 29.87 in 10.0 mi North 6.9 mph - N/A   Clear
8:56 PM 73.0 °F 21.9 °F 15% 29.87 in 10.0 mi NE 8.1 mph - N/A   Clear
9:56 PM 73.0 °F 19.9 °F 14% 29.88 in 10.0 mi NW 6.9 mph - N/A   Clear
10:56 PM 62.1 °F 21.0 °F 21% 29.89 in 10.0 mi SSE 4.6 mph - N/A   Clear
11:56 PM 62.1 °F 26.1 °F 25% 29.91 in 10.0 mi WSW 3.5 mph - N/A   Clear